timestamp,wind_dir_avg,wind_spd_max_dir,wind_spd_avg,wind_spd_gust,battery_voltage,lat,long
2018-10-18 00:00:00+00:00,256.0,258.0,8.39,9.77,,47.59359,-54.27349
2018-10-18 00:10:00+00:00,259.0,260.0,8.16,9.65,,47.59359,-54.27349
2018-10-18 00:20:00+00:00,250.0,250.0,7.6,8.41,,47.59359,-54.27349
2018-10-18 00:30:00+00:00,249.0,250.0,8.55,9.38,,47.59359,-54.27349
2018-10-18 00:40:00+00:00,253.0,251.0,7.9,8.96,,47.59359,-54.27349
2018-10-18 00:50:00+00:00,254.0,251.0,7.75,8.64,,47.59359,-54.27349
2018-10-18 01:00:00+00:00,254.0,258.0,6.23,7.29,,47.59359,-54.27349
2018-10-18 01:10:00+00:00,256.0,260.0,6.67,7.24,,47.59359,-54.27349
2018-10-18 01:20:00+00:00,248.0,251.0,6.29,6.91,,47.59359,-54.27349
2018-10-18 01:30:00+00:00,259.0,260.0,7.2,7.86,,47.59359,-54.27349
2018-10-18 01:40:00+00:00,256.0,257.0,6.66,8.03,,47.59359,-54.27349
2018-10-18 01:50:00+00:00,258.0,249.0,5.57,6.35,,47.59359,-54.27349
2018-10-18 02:00:00+00:00,258.0,261.0,5.53,6.25,,47.59359,-54.27349
2018-10-18 02:10:00+00:00,259.0,255.0,4.78,5.25,,47.59359,-54.27349
2018-10-18 02:20:00+00:00,253.0,252.0,4.23,4.73,,47.59359,-54.27349
2018-10-18 02:30:00+00:00,253.0,252.0,4.26,4.83,,47.59359,-54.27349
2018-10-18 02:40:00+00:00,260.0,261.0,4.27,4.81,,47.59359,-54.27349
2018-10-18 02:50:00+00:00,252.0,250.0,3.91,4.55,,47.59359,-54.27349
2018-10-18 03:00:00+00:00,242.0,233.0,4.62,5.31,,47.59359,-54.27349
2018-10-18 03:10:00+00:00,258.0,262.0,4.07,4.82,,47.59359,-54.27349
2018-10-18 03:20:00+00:00,269.0,257.0,3.14,3.96,,47.59359,-54.27349
2018-10-18 03:30:00+00:00,259.0,257.0,2.59,3.13,,47.59359,-54.27349
2018-10-18 03:40:00+00:00,247.0,253.0,2.12,2.57,,47.59359,-54.27349
2018-10-18 03:50:00+00:00,240.0,242.0,2.25,2.48,,47.59359,-54.27349
2018-10-18 04:00:00+00:00,222.0,229.0,2.02,2.54,,47.59359,-54.27349
2018-10-18 04:10:00+00:00,218.0,215.0,1.71,2.14,,47.59359,-54.27349
2018-10-18 04:20:00+00:00,181.0,197.0,2.35,2.81,,47.59359,-54.27349
2018-10-18 04:30:00+00:00,162.0,164.0,4.04,4.33,,47.59359,-54.27349
2018-10-18 04:40:00+00:00,162.0,162.0,3.26,3.76,,47.59359,-54.27349
2018-10-18 04:50:00+00:00,176.0,179.0,2.97,3.49,,47.59359,-54.27349
2018-10-18 05:00:00+00:00,190.0,193.0,3.91,4.48,,47.59359,-54.27349
2018-10-18 05:10:00+00:00,165.0,167.0,3.55,3.92,,47.59359,-54.27349
2018-10-18 05:20:00+00:00,171.0,175.0,3.88,4.39,,47.59359,-54.27349
2018-10-18 05:30:00+00:00,163.0,167.0,3.26,4.0,,47.59359,-54.27349
2018-10-18 05:40:00+00:00,181.0,180.0,3.11,3.83,,47.59359,-54.27349
2018-10-18 05:50:00+00:00,195.0,188.0,5.04,5.73,,47.59359,-54.27349
2018-10-18 06:00:00+00:00,172.0,165.0,3.88,4.43,,47.59359,-54.27349
2018-10-18 06:10:00+00:00,164.0,163.0,4.73,5.22,,47.59359,-54.27349
2018-10-18 06:20:00+00:00,156.0,150.0,4.97,5.8,,47.59359,-54.27349
2018-10-18 06:30:00+00:00,155.0,159.0,4.74,5.64,,47.59359,-54.27349
2018-10-18 06:40:00+00:00,174.0,171.0,6.14,6.76,,47.59359,-54.27349
2018-10-18 06:50:00+00:00,166.0,171.0,6.28,7.07,,47.59359,-54.27349
2018-10-18 07:00:00+00:00,162.0,162.0,4.72,5.47,,47.59359,-54.27349
2018-10-18 07:10:00+00:00,134.0,139.0,4.75,6.01,,47.59359,-54.27349
2018-10-18 07:20:00+00:00,126.0,138.0,4.73,6.9,,47.59359,-54.27349
2018-10-18 07:30:00+00:00,136.0,136.0,6.3,7.03,,47.59359,-54.27349
2018-10-18 07:40:00+00:00,117.0,95.0,3.24,5.06,,47.59359,-54.27349
2018-10-18 07:50:00+00:00,134.0,131.0,7.02,7.95,,47.59359,-54.27349
2018-10-18 08:00:00+00:00,130.0,138.0,5.32,6.52,,47.59359,-54.27349
2018-10-18 08:10:00+00:00,135.0,145.0,5.11,5.71,,47.59359,-54.27349
2018-10-18 08:20:00+00:00,143.0,135.0,5.48,6.42,,47.59359,-54.27349
2018-10-18 08:30:00+00:00,139.0,135.0,4.15,5.32,,47.59359,-54.27349
2018-10-18 08:40:00+00:00,135.0,134.0,5.84,6.66,,47.59359,-54.27349
2018-10-18 08:50:00+00:00,129.0,134.0,3.91,5.43,,47.59359,-54.27349
2018-10-18 09:00:00+00:00,120.0,121.0,2.97,5.34,,47.59359,-54.27349
2018-10-18 09:10:00+00:00,131.0,124.0,5.01,6.63,,47.59359,-54.27349
2018-10-18 09:20:00+00:00,113.0,106.0,3.58,5.75,,47.59359,-54.27349
2018-10-18 09:30:00+00:00,107.0,106.0,4.09,5.9,,47.59359,-54.27349
2018-10-18 09:40:00+00:00,111.0,127.0,2.54,4.26,,47.59359,-54.27349
2018-10-18 09:50:00+00:00,126.0,126.0,3.08,4.25,,47.59359,-54.27349
2018-10-18 10:00:00+00:00,104.0,111.0,3.17,5.14,,47.59359,-54.27349
2018-10-18 10:10:00+00:00,101.0,94.0,3.45,5.68,,47.59359,-54.27349
2018-10-18 10:20:00+00:00,96.0,105.0,3.33,4.66,,47.59359,-54.27349
2018-10-18 10:30:00+00:00,87.0,80.0,4.1,5.41,,47.59359,-54.27349
2018-10-18 10:40:00+00:00,91.0,95.0,5.12,7.01,,47.59359,-54.27349
2018-10-18 10:50:00+00:00,91.0,86.0,5.74,7.34,,47.59359,-54.27349
2018-10-18 11:00:00+00:00,91.0,80.0,4.69,6.69,,47.59359,-54.27349
2018-10-18 11:10:00+00:00,90.0,82.0,5.34,7.07,,47.59359,-54.27349
2018-10-18 11:20:00+00:00,95.0,97.0,5.28,7.58,,47.59359,-54.27349
2018-10-18 11:30:00+00:00,98.0,94.0,4.1,7.15,,47.59359,-54.27349
2018-10-18 11:40:00+00:00,110.0,120.0,5.66,8.75,,47.59359,-54.27349
2018-10-18 11:50:00+00:00,118.0,143.0,5.05,8.43,,47.59359,-54.27349
2018-10-18 12:00:00+00:00,113.0,127.0,5.05,7.82,,47.59359,-54.27349
2018-10-18 12:10:00+00:00,125.0,129.0,2.84,4.46,,47.59359,-54.27349
2018-10-18 12:20:00+00:00,132.0,138.0,4.31,5.98,,47.59359,-54.27349
2018-10-18 12:30:00+00:00,131.0,135.0,4.9,5.52,,47.59359,-54.27349
2018-10-18 12:40:00+00:00,138.0,141.0,5.62,6.67,,47.59359,-54.27349
2018-10-18 12:50:00+00:00,141.0,138.0,3.87,4.9,,47.59359,-54.27349
2018-10-18 13:00:00+00:00,170.0,175.0,5.03,6.26,,47.59359,-54.27349
2018-10-18 13:10:00+00:00,183.0,177.0,6.43,7.71,,47.59359,-54.27349
2018-10-18 13:20:00+00:00,204.0,209.0,7.78,8.61,,47.59359,-54.27349
2018-10-18 13:30:00+00:00,194.0,200.0,7.49,8.57,,47.59359,-54.27349
2018-10-18 13:40:00+00:00,251.0,258.0,6.83,8.13,,47.59359,-54.27349
2018-10-18 13:50:00+00:00,220.0,214.0,6.11,7.32,,47.59359,-54.27349
2018-10-18 14:00:00+00:00,201.0,186.0,10.62,13.78,,47.59359,-54.27349
2018-10-18 14:10:00+00:00,213.0,216.0,9.91,11.24,,47.59359,-54.27349
2018-10-18 14:20:00+00:00,222.0,223.0,9.51,10.5,,47.59359,-54.27349
2018-10-18 14:30:00+00:00,220.0,220.0,10.34,11.18,,47.59359,-54.27349
2018-10-18 14:40:00+00:00,220.0,220.0,8.81,10.27,,47.59359,-54.27349
2018-10-18 14:50:00+00:00,223.0,224.0,8.12,9.28,,47.59359,-54.27349
2018-10-18 15:00:00+00:00,221.0,215.0,7.04,7.62,,47.59359,-54.27349
2018-10-18 15:10:00+00:00,247.0,253.0,8.51,9.59,,47.59359,-54.27349
2018-10-18 15:20:00+00:00,260.0,262.0,8.83,9.7,,47.59359,-54.27349
2018-10-18 15:30:00+00:00,250.0,257.0,9.03,10.02,,47.59359,-54.27349
2018-10-18 15:40:00+00:00,248.0,247.0,9.37,10.77,,47.59359,-54.27349
2018-10-18 15:50:00+00:00,243.0,256.0,8.58,10.33,,47.59359,-54.27349
2018-10-18 16:00:00+00:00,248.0,251.0,9.27,10.95,,47.59359,-54.27349
2018-10-18 16:10:00+00:00,252.0,251.0,11.85,13.25,,47.59359,-54.27349
2018-10-18 16:20:00+00:00,258.0,256.0,12.03,13.77,,47.59359,-54.27349
2018-10-18 16:30:00+00:00,261.0,263.0,10.51,11.86,,47.59359,-54.27349
2018-10-18 16:40:00+00:00,268.0,266.0,9.73,10.62,,47.59359,-54.27349
2018-10-18 16:50:00+00:00,260.0,259.0,10.38,11.81,,47.59359,-54.27349
2018-10-18 17:00:00+00:00,267.0,271.0,10.06,11.68,,47.59359,-54.27349
2018-10-18 17:10:00+00:00,264.0,264.0,11.21,12.85,,47.59359,-54.27349
2018-10-18 17:20:00+00:00,275.0,278.0,9.47,10.9,,47.59359,-54.27349
2018-10-18 17:30:00+00:00,278.0,278.0,9.93,11.26,,47.59359,-54.27349
2018-10-18 17:40:00+00:00,274.0,275.0,8.21,9.0,,47.59359,-54.27349
2018-10-18 17:50:00+00:00,275.0,275.0,9.56,10.5,,47.59359,-54.27349
2018-10-18 18:00:00+00:00,276.0,273.0,11.55,13.17,,47.59359,-54.27349
2018-10-18 18:10:00+00:00,284.0,284.0,11.16,12.63,,47.59359,-54.27349
2018-10-18 18:20:00+00:00,279.0,287.0,9.39,10.79,,47.59359,-54.27349
2018-10-18 18:30:00+00:00,277.0,276.0,9.94,10.96,,47.59359,-54.27349
2018-10-18 18:40:00+00:00,267.0,272.0,11.21,12.92,,47.59359,-54.27349
2018-10-18 18:50:00+00:00,273.0,272.0,11.72,13.5,,47.59359,-54.27349
2018-10-18 19:00:00+00:00,275.0,277.0,10.34,11.44,,47.59359,-54.27349
2018-10-18 19:10:00+00:00,264.0,268.0,11.79,13.47,,47.59359,-54.27349
2018-10-18 19:20:00+00:00,268.0,271.0,11.68,13.35,,47.59359,-54.27349
2018-10-18 19:30:00+00:00,274.0,274.0,12.26,13.45,,47.59359,-54.27349
2018-10-18 19:40:00+00:00,278.0,278.0,12.57,14.04,,47.59359,-54.27349
2018-10-18 19:50:00+00:00,265.0,265.0,9.16,10.77,,47.59359,-54.27349
2018-10-18 20:00:00+00:00,263.0,262.0,10.82,11.73,,47.59359,-54.27349
2018-10-18 20:10:00+00:00,263.0,264.0,12.08,13.24,,47.59359,-54.27349
2018-10-18 20:20:00+00:00,270.0,273.0,10.28,11.15,,47.59359,-54.27349
2018-10-18 20:30:00+00:00,264.0,267.0,11.29,13.04,,47.59359,-54.27349
2018-10-18 20:40:00+00:00,257.0,257.0,13.03,14.23,,47.59359,-54.27349
2018-10-18 20:50:00+00:00,255.0,261.0,10.42,12.04,,47.59359,-54.27349
2018-10-18 21:00:00+00:00,253.0,249.0,9.67,10.96,,47.59359,-54.27349
2018-10-18 21:10:00+00:00,260.0,264.0,9.44,10.48,,47.59359,-54.27349
2018-10-18 21:20:00+00:00,263.0,262.0,10.62,12.41,,47.59359,-54.27349
2018-10-18 21:30:00+00:00,254.0,248.0,12.52,14.23,,47.59359,-54.27349
2018-10-18 21:40:00+00:00,271.0,271.0,12.85,14.24,,47.59359,-54.27349
2018-10-18 21:50:00+00:00,268.0,269.0,9.87,11.46,,47.59359,-54.27349
2018-10-18 22:00:00+00:00,256.0,258.0,12.85,14.36,,47.59359,-54.27349
2018-10-18 22:10:00+00:00,240.0,241.0,10.84,13.18,,47.59359,-54.27349
2018-10-18 22:20:00+00:00,244.0,244.0,9.16,10.98,,47.59359,-54.27349
2018-10-18 22:30:00+00:00,254.0,260.0,10.56,12.04,,47.59359,-54.27349
2018-10-18 22:40:00+00:00,257.0,259.0,10.85,11.99,,47.59359,-54.27349
2018-10-18 22:50:00+00:00,259.0,258.0,11.61,13.21,,47.59359,-54.27349
2018-10-18 23:00:00+00:00,254.0,249.0,10.68,13.24,,47.59359,-54.27349
2018-10-18 23:10:00+00:00,251.0,251.0,11.14,12.54,,47.59359,-54.27349
2018-10-18 23:20:00+00:00,259.0,257.0,11.43,13.06,,47.59359,-54.27349
2018-10-18 23:30:00+00:00,265.0,268.0,13.29,14.37,,47.59359,-54.27349
2018-10-18 23:40:00+00:00,256.0,256.0,11.45,12.53,,47.59359,-54.27349
2018-10-18 23:50:00+00:00,262.0,262.0,11.92,12.91,,47.59359,-54.27349
